KT2UU-13 Weather Reports


Display with metric or nautical units.
time (UTC)temp
F
wind
direction
speed
MPH
gust
MPH
rain 1hr
in
rain 24hr
in
rain mn
in
humidity
%
barometer
mb
20260903034705 79 215 0.0 0.0 0.00 0.00 0.00 89 1018.1
20260903034200 79 215 0.0 0.0 0.00 0.00 0.00 88 1018.2
20260903033656 79 215 0.0 0.0 0.00 0.00 0.00 87 1018.4
20260903033150 79 215 0.0 0.0 0.00 0.00 0.00 87 1018.3
20260903032645 79 215 0.0 0.0 0.00 0.00 0.00 87 1018.5
20260903032140 79 215 0.0 0.0 0.00 0.00 0.00 88 1018.4
20260903031636 79 215 0.0 0.0 0.00 0.00 0.00 87 1018.4
20260903031131 79 215 0.0 0.0 0.00 0.00 0.00 88 1018.5
20260903030626 79 215 0.0 0.0 0.00 0.00 0.00 88 1018.5
20260903030122 79 208 0.0 0.0 0.00 0.00 0.00 88 1018.6
20260903025617 79 215 0.0 0.0 0.00 0.00 0.00 89 1018.5
20260903025113 79 215 0.0 0.0 0.00 0.00 0.00 89 1018.6
20260903024613 79 215 0.0 0.0 0.00 0.00 0.00 89 1018.5
20260903024106 79 215 0.0 0.0 0.00 0.00 0.00 88 1018.6
20260903023602 80 215 0.0 0.0 0.00 0.00 0.00 88 1018.7
20260903023051 80 215 0.0 0.0 0.00 0.00 0.00 88 1018.7
20260903022551 80 209 0.0 0.0 0.00 0.00 0.00 88 1018.6
20260903022050 80 216 0.0 0.0 0.00 0.00 0.00 87 1018.5
20260903021544 80 216 0.0 0.0 0.00 0.00 0.00 86 1018.4
20260903021039 80 216 0.0 0.0 0.00 0.00 0.00 86 1018.4
20260903020535 80 216 0.0 0.0 0.00 0.00 0.00 86 1018.4
20260903020035 80 216 0.0 0.0 0.00 0.00 0.00 86 1018.4
20260903015530 80 216 0.0 0.0 0.00 0.00 0.00 85 1018.5
20260903015026 81 216 0.0 0.0 0.00 0.00 0.00 85 1018.4
20260903014525 81 216 0.0 0.0 0.00 0.00 0.00 85 1018.5
20260903014021 81 216 0.0 0.0 0.00 0.00 0.00 85 1018.3
20260903013520 81 216 0.0 0.0 0.00 0.00 0.00 84 1018.2
20260903013014 81 216 0.0 0.0 0.00 0.00 0.00 83 1018.2
20260903012508 82 216 0.0 0.0 0.00 0.00 0.00 83 1018.0
20260903012007 82 216 0.0 0.0 0.00 0.00 0.00 83 1017.9
20260903011502 82 216 0.0 0.0 0.00 0.00 0.00 83 1018.2
20260903010956 82 216 0.0 0.0 0.00 0.00 0.00 82 1018.0
20260903010451 82 216 0.0 0.0 0.00 0.00 0.00 83 1017.7
20260903005949 82 207 0.0 0.0 0.00 0.00 0.00 83 1017.6
20260903005444 83 206 0.0 0.0 0.00 0.00 0.00 82 1017.9
20260903004941 83 206 0.0 0.0 0.00 0.00 0.00 80 1017.7
20260903004435 83 210 0.0 0.0 0.00 0.00 0.00 79 1017.8
20260903003931 83 206 0.0 0.0 0.00 0.00 0.00 78 1017.6
20260903003431 83 206 0.0 0.0 0.00 0.00 0.00 78 1017.7
20260903002925 84 216 0.0 0.0 0.00 0.00 0.00 77 1017.6
20260903002420 84 216 0.0 0.0 0.00 0.00 0.00 78 1017.7
20260903001915 85 210 0.0 0.0 0.00 0.00 0.00 77 1017.6
20260903001409 85 210 0.0 0.0 0.00 0.00 0.00 76 1017.7
20260903000903 86 216 0.0 0.0 0.00 0.00 0.00 76 1017.6
20260903000359 87 206 0.0 0.0 0.00 0.00 0.00 76 1017.7
20260902235857 87 205 0.0 0.0 0.00 0.00 0.00 73 1017.8
20260902235352 88 205 0.0 0.0 0.00 0.00 0.00 71 1017.8
20260902234851 89 213 0.0 0.0 0.00 0.00 0.00 71 1017.6
20260902234346 89 215 0.0 0.0 0.00 0.00 0.00 67 1017.7
20260902233844 91 213 0.0 0.0 0.00 0.00 0.00 65 1017.8
20260902233340 92 215 0.0 0.0 0.00 0.00 0.00 65 1017.8
20260902232838 94 209 0.0 0.0 0.00 0.00 0.00 62 1017.9
20260902232333 94 209 0.0 0.0 0.00 0.00 0.00 63 1017.9
20260902231833 94 209 0.0 0.0 0.00 0.00 0.00 61 1017.9
20260902231328 94 211 0.0 0.0 0.00 0.00 0.00 63 1017.6
20260902230823 95 211 0.0 0.0 0.00 0.00 0.00 59 1017.8
20260902230322 96 211 0.0 0.0 0.00 0.00 0.00 58 1017.7
20260902225817 96 211 0.0 0.0 0.00 0.00 0.00 56 1018.0
20260902225312 95 211 0.0 0.0 0.00 0.00 0.00 53 1017.9
20260902224810 96 213 0.0 1.0 0.00 0.00 0.00 51 1017.8
20260902224305 96 213 0.0 0.0 0.00 0.00 0.00 51 1017.9
20260902223802 96 213 0.0 1.0 0.00 0.00 0.00 51 1018.0
20260902223301 95 213 0.0 1.0 0.00 0.00 0.00 50 1018.0
20260902222755 96 213 1.0 1.0 0.00 0.00 0.00 49 1018.1
20260902222254 98 219 0.0 0.0 0.00 0.00 0.00 51 1018.0
20260902221749 98 219 0.0 0.0 0.00 0.00 0.00 47 1017.8
20260902221248 98 219 0.0 1.0 0.00 0.00 0.00 48 1017.9
20260902220744 98 219 0.0 0.0 0.00 0.00 0.00 47 1018.0
20260902220243 98 213 0.0 2.0 0.00 0.00 0.00 50 1018.1
20260902215739 97 219 0.0 2.0 0.00 0.00 0.00 50 1018.1
20260902215234 95 213 0.0 1.0 0.00 0.00 0.00 49 1018.0
20260902214730 96 209 0.0 3.0 0.00 0.00 0.00 49 1018.2
20260902214228 99 219 0.0 0.0 0.00 0.00 0.00 45 1018.1
20260902213724 96 219 0.0 1.0 0.00 0.00 0.00 50 1017.9
20260902213219 97 219 2.0 4.0 0.00 0.00 0.00 48 1018.1
20260902212718 97 219 0.0 0.0 0.00 0.00 0.00 49 1018.0
20260902212215 97 219 0.0 1.0 0.00 0.00 0.00 49 1018.1
20260902211711 98 217 2.0 4.0 0.00 0.00 0.00 46 1018.0
20260902211206 99 219 0.0 1.0 0.00 0.00 0.00 45 1018.1
20260902210700 98 213 0.0 3.0 0.00 0.00 0.00 48 1018.2
20260902210155 98 219 0.0 0.0 0.00 0.00 0.00 45 1018.3
20260902205654 96 219 0.0 1.0 0.00 0.00 0.00 46 1018.1
20260902205149 97 212 0.0 1.0 0.00 0.00 0.00 44 1018.1
20260902204644 97 219 0.0 0.0 0.00 0.00 0.00 47 1018.3
20260902204138 98 219 0.0 1.0 0.00 0.00 0.00 45 1018.2
20260902203634 96 219 0.0 0.0 0.00 0.00 0.00 46 1018.4
20260902203134 96 213 1.0 2.0 0.00 0.00 0.00 47 1018.4
20260902202629 97 213 3.0 3.0 0.00 0.00 0.00 47 1018.4
20260902202126 97 219 2.0 2.0 0.00 0.00 0.00 45 1018.6
20260902201622 97 219 0.0 0.0 0.00 0.00 0.00 46 1018.4
20260902201121 97 219 0.0 2.0 0.00 0.00 0.00 47 1018.4
20260902200616 98 213 0.0 2.0 0.00 0.00 0.00 43 1018.4
20260902200113 97 213 2.0 2.0 0.00 0.00 0.00 45 1018.5
20260902195608 97 213 0.0 2.0 0.00 0.00 0.00 45 1018.7
20260902195107 98 219 2.0 3.0 0.00 0.00 0.00 44 1018.7
20260902194606 97 211 0.0 0.0 0.00 0.00 0.00 44 1018.7
20260902194102 98 224 2.0 3.0 0.00 0.00 0.00 43 1018.8
20260902193558 97 213 0.0 1.0 0.00 0.00 0.00 46 1018.9
20260902193057 97 211 0.0 0.0 0.00 0.00 0.00 48 1018.8
20260902192555 96 211 0.0 0.0 0.00 0.00 0.00 47 1018.8
20260902192054 96 215 0.0 1.0 0.00 0.00 0.00 51 1019.0
20260902191550 96 211 0.0 3.0 0.00 0.00 0.00 50 1019.1
20260902191044 96 211 2.0 2.0 0.00 0.00 0.00 50 1019.0
20260902190540 97 211 0.0 3.0 0.00 0.00 0.00 51 1019.1
20260902190035 96 209 0.0 0.0 0.00 0.00 0.00 52 1019.2
20260902185531 96 211 1.0 2.0 0.00 0.00 0.00 51 1019.2
20260902185026 95 216 2.0 2.0 0.00 0.00 0.00 52 1019.4
20260902184521 95 215 0.0 0.0 0.00 0.00 0.00 56 1019.3
20260902184017 95 215 0.0 1.0 0.00 0.00 0.00 53 1019.4
20260902183513 94 202 2.0 2.0 0.00 0.00 0.00 52 1019.5
20260902183009 94 212 0.0 1.0 0.00 0.00 0.00 55 1019.4
20260902182505 95 209 2.0 3.0 0.00 0.00 0.00 54 1019.3
20260902182000 95 211 0.0 3.0 0.00 0.00 0.00 53 1019.8
20260902181456 95 212 1.0 2.0 0.00 0.00 0.00 55 1019.6
20260902180951 95 213 0.0 1.0 0.00 0.00 0.00 57 1019.7
20260902180446 93 218 0.0 1.0 0.00 0.00 0.00 56 1019.7
20260902175941 93 219 3.0 4.0 0.00 0.00 0.00 60 1019.7
20260902175436 93 216 2.0 3.0 0.00 0.00 0.00 57 1019.8
20260902174932 94 215 3.0 3.0 0.00 0.00 0.00 58 1019.6
20260902174428 93 204 2.0 2.0 0.00 0.00 0.00 57 1019.9
20260902173924 92 214 0.0 1.0 0.00 0.00 0.00 57 1020.2
20260902173423 92 228 2.0 3.0 0.00 0.00 0.00 57 1020.2
20260902172918 92 215 0.0 2.0 0.00 0.00 0.00 59 1020.1
20260902172417 92 222 2.0 3.0 0.00 0.00 0.00 56 1020.4
20260902171912 92 218 3.0 4.0 0.00 0.00 0.00 57 1020.4
20260902171408 92 218 3.0 7.0 0.00 0.00 0.00 58 1020.4
20260902170904 92 204 0.0 4.0 0.00 0.00 0.00 65 1020.6
20260902170359 92 216 0.0 2.0 0.00 0.00 0.00 66 1020.7
20260902165854 92 216 0.0 4.0 0.00 0.00 0.00 69 1020.5
20260902165353 91 216 0.0 0.0 0.00 0.00 0.00 68 1020.6
20260902164849 91 213 1.0 3.0 0.00 0.00 0.00 66 1020.7
20260902164343 92 210 0.0 4.0 0.00 0.00 0.00 65 1020.7
20260902163842 92 213 0.0 0.0 0.00 0.00 0.00 68 1020.9
20260902163337 91 213 0.0 1.0 0.00 0.00 0.00 67 1020.9
20260902162835 91 204 0.0 0.0 0.00 0.00 0.00 67 1021.1
20260902162330 90 211 0.0 0.0 0.00 0.00 0.00 67 1021.1
20260902161825 90 204 0.0 1.0 0.00 0.00 0.00 67 1021.2
20260902161321 90 210 1.0 2.0 0.00 0.00 0.00 67 1021.2
20260902160817 91 217 2.0 2.0 0.00 0.00 0.00 68 1021.2
20260902160312 91 213 0.0 0.0 0.00 0.00 0.00 67 1021.3
20260902155810 89 216 0.0 1.0 0.00 0.00 0.00 70 1021.2
20260902155309 89 210 0.0 2.0 0.00 0.00 0.00 72 1021.5
20260902154804 89 216 1.0 2.0 0.00 0.00 0.00 71 1021.3
20260902154300 89 205 0.0 1.0 0.00 0.00 0.00 71 1021.3
20260902153758 88 205 0.0 0.0 0.00 0.00 0.00 73 1021.4
20260902153253 87 215 0.0 1.0 0.00 0.00 0.00 74 1021.4
20260902152749 88 217 1.0 3.0 0.00 0.00 0.00 71 1021.5
20260902152244 88 215 1.0 2.0 0.00 0.00 0.00 72 1021.2
20260902151739 87 215 1.0 2.0 0.00 0.00 0.00 74 1021.4
20260902151234 87 217 1.0 2.0 0.00 0.00 0.00 75 1021.4
20260902150729 87 213 0.0 1.0 0.00 0.00 0.00 74 1021.4
20260902150225 86 212 1.0 3.0 0.00 0.00 0.00 76 1021.2
20260902145724 86 215 1.0 2.0 0.00 0.00 0.00 77 1021.3
20260902145219 86 212 1.0 2.0 0.00 0.00 0.00 78 1021.3
20260902144715 85 215 2.0 3.0 0.00 0.00 0.00 79 1021.2
20260902144210 85 205 0.0 2.0 0.00 0.00 0.00 79 1021.1
20260902143706 85 213 1.0 2.0 0.00 0.00 0.00 80 1021.1
20260902143201 85 215 0.0 0.0 0.00 0.00 0.00 80 1021.2
20260902142656 85 216 0.0 0.0 0.00 0.00 0.00 79 1021.1
20260902142152 85 215 0.0 0.0 0.00 0.00 0.00 80 1021.2
20260902141652 85 215 0.0 0.0 0.00 0.00 0.00 81 1021.1
20260902141147 84 215 0.0 0.0 0.00 0.00 0.00 83 1021.2
20260902140642 84 215 0.0 0.0 0.00 0.00 0.00 83 1021.3
20260902140137 83 216 0.0 0.0 0.00 0.00 0.00 83 1021.1
20260902135636 83 209 0.0 0.0 0.00 0.00 0.00 82 1021.1
20260902135132 83 215 0.0 0.0 0.00 0.00 0.00 83 1021.3
20260902134627 82 215 0.0 0.0 0.00 0.00 0.00 84 1021.2
20260902134121 82 216 0.0 0.0 0.00 0.00 0.00 83 1021.3
20260902133622 82 215 0.0 0.0 0.00 0.00 0.00 85 1021.3
20260902133121 81 215 0.0 0.0 0.00 0.00 0.00 86 1021.2
20260902132618 81 215 0.0 0.0 0.00 0.00 0.00 86 1021.4
20260902132113 80 215 0.0 0.0 0.00 0.00 0.00 87 1021.3
20260902131609 80 215 0.0 0.0 0.00 0.00 0.00 86 1021.4
20260902131103 81 215 0.0 0.0 0.00 0.00 0.00 87 1021.2
20260902130559 81 215 0.0 0.0 0.00 0.00 0.00 86 1021.1
20260902130054 81 215 0.0 0.0 0.00 0.00 0.00 86 1021.1
20260902125550 80 215 0.0 0.0 0.00 0.00 0.00 87 1021.2
20260902125045 80 215 0.0 0.0 0.00 0.00 0.00 87 1021.1
20260902124543 79 215 0.0 0.0 0.00 0.00 0.00 89 1021.0
20260902124042 79 215 0.0 0.0 0.00 0.00 0.00 90 1021.1
20260902123538 78 215 0.0 0.0 0.00 0.00 0.00 91 1021.2
20260902123037 77 215 0.0 0.0 0.00 0.00 0.00 92 1021.0
20260902122532 76 215 0.0 0.0 0.00 0.00 0.00 96 1021.0
20260902122027 75 215 0.0 0.0 0.00 0.00 0.00 96 1021.1
20260902121522 74 215 0.0 0.0 0.00 0.00 0.00 98 1020.8
20260902121017 74 208 0.0 0.0 0.00 0.00 0.00 99 1020.8
20260902120514 73 215 0.0 0.0 0.00 0.00 0.00 99 1020.9
20260902120009 72 215 0.0 0.0 0.00 0.00 0.00 99 1021.0
20260902115504 72 215 0.0 0.0 0.00 0.00 0.00 99 1020.9
20260902115001 72 215 0.0 0.0 0.00 0.00 0.00 99 1020.9
20260902114456 71 215 0.0 0.0 0.00 0.00 0.00 99 1020.7
20260902113950 71 215 0.0 0.0 0.00 0.00 0.00 99 1020.7
20260902113447 71 215 0.0 0.0 0.00 0.00 0.00 99 1020.7
20260902112946 71 215 0.0 0.0 0.00 0.00 0.00 99 1020.8
20260902112442 71 215 0.0 0.0 0.00 0.00 0.00 99 1020.7
20260902111938 71 215 0.0 0.0 0.00 0.00 0.00 99 1020.6
20260902111434 71 215 0.0 0.0 0.00 0.00 0.00 99 1020.4
20260902110930 71 215 0.0 0.0 0.00 0.00 0.00 99 1020.6
20260902110425 71 215 0.0 0.0 0.00 0.00 0.00 99 1020.6
20260902105920 71 215 0.0 0.0 0.00 0.00 0.00 99 1020.5
20260902105415 71 215 0.0 0.0 0.00 0.00 0.00 99 1020.5
20260902104909 71 215 0.0 0.0 0.00 0.00 0.00 99 1020.3
20260902104405 71 215 0.0 0.0 0.00 0.00 0.00 99 1020.3
20260902103900 71 215 0.0 0.0 0.00 0.00 0.00 99 1020.2
20260902103354 72 215 0.0 0.0 0.00 0.00 0.00 99 1020.3
20260902102849 72 215 0.0 0.0 0.00 0.00 0.00 99 1020.2
20260902102348 71 215 0.0 0.0 0.00 0.00 0.00 99 1020.2
20260902101842 72 215 0.0 0.0 0.00 0.00 0.00 99 1020.1
20260902101336 71 215 0.0 0.0 0.00 0.00 0.00 99 1020.3
20260902100830 71 215 0.0 0.0 0.00 0.00 0.00 99 1020.3
20260902100324 72 215 0.0 0.0 0.00 0.00 0.00 99 1020.2
20260902095819 72 215 0.0 0.0 0.00 0.00 0.00 99 1020.2
20260902095314 72 215 0.0 0.0 0.00 0.00 0.00 99 1020.2
20260902094808 71 215 0.0 0.0 0.00 0.00 0.00 99 1020.2
20260902094305 72 215 0.0 0.0 0.00 0.00 0.00 99 1020.1
20260902093804 71 215 0.0 0.0 0.00 0.00 0.00 99 1020.1
20260902093259 71 215 0.0 0.0 0.00 0.00 0.00 99 1020.0
20260902092758 72 215 0.0 0.0 0.00 0.00 0.00 99 1020.1
20260902092254 72 215 0.0 0.0 0.00 0.00 0.00 99 1019.9
20260902091753 72 215 0.0 0.0 0.00 0.00 0.00 99 1020.1
20260902091249 72 215 0.0 0.0 0.00 0.00 0.00 99 1019.9
20260902090746 72 215 0.0 0.0 0.00 0.00 0.00 99 1019.9
20260902090245 72 215 0.0 0.0 0.00 0.00 0.00 99 1019.8
20260902085739 72 215 0.0 0.0 0.00 0.00 0.00 99 1019.8
20260902085234 72 215 0.0 0.0 0.00 0.00 0.00 99 1019.8
20260902084730 72 215 0.0 0.0 0.00 0.00 0.00 99 1019.8
20260902084226 72 215 0.0 0.0 0.00 0.00 0.00 99 1019.7
20260902083721 72 215 0.0 0.0 0.00 0.00 0.00 99 1019.7
20260902083221 72 215 0.0 0.0 0.00 0.00 0.00 99 1019.6
20260902082716 72 215 0.0 0.0 0.00 0.00 0.00 99 1019.5
20260902082212 72 215 0.0 0.0 0.00 0.00 0.00 99 1019.4
20260902081708 72 215 0.0 0.0 0.00 0.00 0.00 99 1019.6
20260902081203 72 215 0.0 0.0 0.00 0.00 0.00 99 1019.5
20260902080658 72 215 0.0 0.0 0.00 0.00 0.00 99 1019.5
20260902080154 72 215 0.0 0.0 0.00 0.00 0.00 99 1019.4
20260902075649 73 215 0.0 0.0 0.00 0.00 0.00 99 1019.4
20260902075145 72 215 0.0 0.0 0.00 0.00 0.00 99 1019.4
20260902074639 72 215 0.0 0.0 0.00 0.00 0.00 99 1019.2
20260902074135 72 215 0.0 0.0 0.00 0.00 0.00 99 1019.3
20260902073630 73 215 0.0 0.0 0.00 0.00 0.00 99 1019.2
20260902073126 73 215 0.0 0.0 0.00 0.00 0.00 99 1019.3
20260902072622 73 215 0.0 0.0 0.00 0.00 0.00 99 1019.1
20260902072118 73 215 0.0 0.0 0.00 0.00 0.00 99 1019.3
20260902071613 73 215 0.0 0.0 0.00 0.00 0.00 99 1019.1
20260902071109 73 215 0.0 0.0 0.00 0.00 0.00 99 1019.1
20260902070605 73 215 0.0 0.0 0.00 0.00 0.00 99 1019.3
20260902070059 73 215 0.0 0.0 0.00 0.00 0.00 99 1019.4
20260902065558 73 215 0.0 0.0 0.00 0.00 0.00 99 1019.5
20260902065054 73 215 0.0 0.0 0.00 0.00 0.00 99 1019.6
20260902064549 73 215 0.0 0.0 0.00 0.00 0.00 99 1019.5
20260902064044 73 215 0.0 0.0 0.00 0.00 0.00 99 1019.5
20260902063539 73 215 0.0 0.0 0.00 0.00 0.00 99 1019.6
20260902063035 73 215 0.0 0.0 0.00 0.00 0.00 99 1019.6
20260902062533 73 215 0.0 0.0 0.00 0.00 0.00 99 1019.6
20260902062029 73 215 0.0 0.0 0.00 0.00 0.00 99 1019.7
20260902061528 73 215 0.0 0.0 0.00 0.00 0.00 99 1019.6
20260902061024 73 215 0.0 0.0 0.00 0.00 0.00 99 1019.7
20260902060521 73 215 0.0 0.0 0.00 0.00 0.00 99 1019.7
20260902060017 73 215 0.0 0.0 0.00 0.00 0.00 98 1019.7
20260902055512 73 215 0.0 0.0 0.00 0.00 0.00 98 1019.8
20260902055008 73 215 0.0 0.0 0.00 0.00 0.00 98 1019.6
20260902054508 73 215 0.0 0.0 0.00 0.00 0.00 98 1019.6
20260902054003 73 215 0.0 0.0 0.00 0.00 0.00 98 1019.7
20260902053458 74 215 0.0 0.0 0.00 0.00 0.00 98 1019.6
20260902052957 74 215 0.0 0.0 0.00 0.00 0.00 98 1019.7
20260902052452 74 206 0.0 0.0 0.00 0.00 0.00 98 1019.7
20260902051948 74 215 0.0 0.0 0.00 0.00 0.00 97 1019.7
20260902051443 74 215 0.0 0.0 0.00 0.00 0.00 97 1019.6
20260902050941 74 215 0.0 0.0 0.00 0.00 0.00 97 1019.7
20260902050441 74 215 0.0 0.0 0.00 0.00 0.00 97 1019.6
20260902045936 74 215 0.0 0.0 0.00 0.00 0.00 97 1019.8
20260902045432 74 215 0.0 0.0 0.00 0.00 0.00 97 1019.8
20260902044928 74 206 0.0 0.0 0.00 0.00 0.00 97 1019.7
20260902044423 74 215 0.0 0.0 0.00 0.00 0.00 97 1019.5
20260902043918 74 215 0.0 0.0 0.00 0.00 0.00 97 1019.7
20260902043408 74 215 0.0 0.0 0.00 0.00 0.00 96 1019.6
20260902042903 74 215 0.0 0.0 0.00 0.00 0.00 96 1019.5
20260902042402 75 215 0.0 0.0 0.00 0.00 0.00 96 1019.8
20260902041857 75 215 0.0 0.0 0.00 0.00 0.00 96 1019.7
20260902041352 75 215 0.0 0.0 0.00 0.00 0.00 96 1019.6
20260902040850 75 215 0.0 0.0 0.00 0.00 0.00 96 1019.7
20260902040346 75 206 0.0 0.0 0.00 0.00 0.00 96 1019.5
20260902035845 75 207 0.0 0.0 0.00 0.00 0.00 95 1019.7
20260902035340 75 207 0.0 0.0 0.00 0.00 0.00 95 1019.7